When you browse on this site, cookies collect data to enhance your experience and personalize the content and advertising you see.
Visit our Privacy Policy to learn more. By continuing to use the site, you agree to this use of cookies and data.

Hourly Weather Abovyan

Today, 18 September, Friday

Time Temperature Precipitation Wind Pressure Humidity
00:00 +20°C° 0.1 mm 2 mps 674 mmHg 64%
01:00 +19°C° 0 mm 2 mps 674 mmHg 65%
02:00 +20°C° 0 mm 1 mps 673 mmHg 67%
03:00 +20°C° 0 mm 1 mps 673 mmHg 70%
04:00 +19°C° 0 mm 1 mps 673 mmHg 71%
05:00 +19°C° 0 mm 1 mps 673 mmHg 71%
06:00 +19°C° 0 mm 1 mps 673 mmHg 72%
07:00 +21°C° 0 mm 1 mps 673 mmHg 63%
08:00 +23°C° 0 mm 1 mps 673 mmHg 54%
09:00 +26°C° 0 mm 2 mps 673 mmHg 45%
10:00 +27°C° 0 mm 2 mps 673 mmHg 39%
11:00 +29°C° 0 mm 2 mps 673 mmHg 33%
12:00 +31°C° 0 mm 3 mps 674 mmHg 27%
13:00 +31°C° 0 mm 2 mps 673 mmHg 24%
14:00 +32°C° 0 mm 2 mps 673 mmHg 20%
15:00 +34°C° 0 mm 2 mps 672 mmHg 17%
16:00 +31°C° 0 mm 2 mps 672 mmHg 20%
17:00 +29°C° 0 mm 2 mps 672 mmHg 23%
18:00 +27°C° 0 mm 1 mps 671 mmHg 26%
19:00 +26°C° 0 mm 2 mps 671 mmHg 31%
20:00 +25°C° 0 mm 2 mps 671 mmHg 35%
21:00 +24°C° 0 mm 3 mps 671 mmHg 40%
22:00 +22°C° 0 mm 3 mps 671 mmHg 43%
23:00 +21°C° 0 mm 2 mps 671 mmHg 46%

Tomorrow, 19 September, Saturday

Time Temperature Precipitation Wind Pressure Humidity
00:00 +20°C° 0 mm 2 mps 671 mmHg 49%
01:00 +20°C° 0 mm 2 mps 671 mmHg 50%
02:00 +19°C° 0 mm 2 mps 670 mmHg 51%
03:00 +19°C° 0 mm 2 mps 670 mmHg 52%
04:00 +19°C° 0 mm 2 mps 670 mmHg 51%
05:00 +18°C° 0 mm 2 mps 670 mmHg 50%
06:00 +18°C° 0 mm 2 mps 670 mmHg 49%
07:00 +21°C° 0 mm 2 mps 671 mmHg 42%
08:00 +24°C° 0 mm 2 mps 671 mmHg 35%
09:00 +27°C° 0 mm 2 mps 672 mmHg 28%
10:00 +28°C° 0 mm 3 mps 672 mmHg 25%
11:00 +30°C° 0 mm 3 mps 672 mmHg 23%
12:00 +32°C° 0 mm 4 mps 672 mmHg 20%
13:00 +32°C° 0 mm 4 mps 672 mmHg 21%
14:00 +32°C° 0 mm 4 mps 671 mmHg 21%
15:00 +32°C° 0 mm 5 mps 671 mmHg 22%
16:00 +29°C° 0 mm 5 mps 671 mmHg 27%
17:00 +27°C° 0 mm 4 mps 671 mmHg 32%
18:00 +25°C° 0 mm 4 mps 670 mmHg 37%
19:00 +23°C° 0 mm 4 mps 671 mmHg 40%
20:00 +22°C° 0 mm 3 mps 671 mmHg 43%
21:00 +21°C° 0 mm 3 mps 671 mmHg 45%
22:00 +20°C° 0 mm 3 mps 671 mmHg 46%
23:00 +19°C° 0 mm 2 mps 671 mmHg 47%

Day after tomorrow, 20 September, Sunday

Time Temperature Precipitation Wind Pressure Humidity
00:00 +19°C° 0 mm 2 mps 671 mmHg 48%
01:00 +18°C° 0 mm 2 mps 671 mmHg 50%
02:00 +18°C° 0 mm 2 mps 671 mmHg 51%
03:00 +17°C° 0 mm 2 mps 671 mmHg 53%
04:00 +17°C° 0 mm 2 mps 671 mmHg 55%
05:00 +16°C° 0 mm 2 mps 671 mmHg 57%
06:00 +16°C° 0 mm 1 mps 672 mmHg 59%
07:00 +18°C° 0 mm 2 mps 672 mmHg 53%
08:00 +20°C° 0 mm 2 mps 673 mmHg 47%
09:00 +24°C° 0 mm 2 mps 673 mmHg 41%
10:00 +25°C° 0 mm 2 mps 673 mmHg 38%
11:00 +26°C° 0 mm 2 mps 673 mmHg 35%
12:00 +28°C° 0 mm 3 mps 673 mmHg 31%
13:00 +28°C° 0 mm 2 mps 672 mmHg 30%
14:00 +29°C° 0 mm 2 mps 672 mmHg 28%
15:00 +29°C° 0 mm 2 mps 672 mmHg 27%
16:00 +28°C° 0 mm 2 mps 671 mmHg 32%
17:00 +26°C° 0 mm 2 mps 671 mmHg 37%
18:00 +24°C° 0 mm 3 mps 671 mmHg 43%
19:00 +22°C° 0 mm 3 mps 671 mmHg 47%
20:00 +21°C° 0 mm 3 mps 671 mmHg 50%
21:00 +20°C° 0 mm 3 mps 672 mmHg 54%
22:00 +19°C° 0 mm 3 mps 672 mmHg 56%
23:00 +18°C° 0 mm 2 mps 672 mmHg 58%

21 September, Monday

Time Temperature Precipitation Wind Pressure Humidity
00:00 +18°C° 0 mm 2 mps 672 mmHg 60%
01:00 +17°C° 0 mm 2 mps 672 mmHg 61%
02:00 +17°C° 0 mm 2 mps 672 mmHg 62%
03:00 +17°C° 0 mm 2 mps 672 mmHg 64%
04:00 +16°C° 0 mm 2 mps 672 mmHg 66%
05:00 +16°C° 0 mm 1 mps 672 mmHg 68%
06:00 +15°C° 0 mm 1 mps 672 mmHg 70%
07:00 +19°C° 0 mm 1 mps 673 mmHg 63%
08:00 +21°C° 0 mm 1 mps 673 mmHg 56%
09:00 +23°C° 0 mm 2 mps 674 mmHg 48%
10:00 +25°C° 0.1 mm 2 mps 674 mmHg 44%
11:00 +26°C° 0.1 mm 3 mps 674 mmHg 40%
12:00 +28°C° 0.1 mm 3 mps 674 mmHg 36%
13:00 +28°C° 0.1 mm 3 mps 674 mmHg 34%
14:00 +29°C° 0.1 mm 3 mps 674 mmHg 33%
15:00 +30°C° 0.1 mm 3 mps 673 mmHg 31%
16:00 +28°C° 0 mm 3 mps 673 mmHg 38%
17:00 +26°C° 0 mm 4 mps 673 mmHg 45%
18:00 +23°C° 0 mm 4 mps 672 mmHg 52%
19:00 +22°C° 0 mm 4 mps 672 mmHg 53%
20:00 +21°C° 0 mm 4 mps 673 mmHg 55%
21:00 +20°C° 0 mm 4 mps 673 mmHg 57%
22:00 +19°C° 0 mm 3 mps 673 mmHg 59%
23:00 +19°C° 0 mm 2 mps 672 mmHg 62%

22 September, Tuesday

Time Temperature Precipitation Wind Pressure Humidity
00:00 +18°C° 0 mm 2 mps 672 mmHg 64%
01:00 +18°C° 0 mm 2 mps 672 mmHg 66%
02:00 +17°C° 0 mm 2 mps 672 mmHg 69%
03:00 +17°C° 0 mm 2 mps 671 mmHg 71%
04:00 +16°C° 0 mm 1 mps 671 mmHg 72%
05:00 +16°C° 0 mm 1 mps 671 mmHg 73%
06:00 +16°C° 0 mm 1 mps 671 mmHg 74%
07:00 +19°C° 0 mm 1 mps 672 mmHg 65%
08:00 +20°C° 0 mm 2 mps 672 mmHg 56%
09:00 +24°C° 0 mm 2 mps 673 mmHg 47%
10:00 +25°C° 0 mm 2 mps 673 mmHg 42%
11:00 +27°C° 0 mm 2 mps 673 mmHg 36%
12:00 +29°C° 0 mm 3 mps 673 mmHg 31%
13:00 +29°C° 0 mm 3 mps 672 mmHg 29%
14:00 +30°C° 0 mm 2 mps 672 mmHg 27%
15:00 +31°C° 0 mm 2 mps 672 mmHg 25%
16:00 +29°C° 0 mm 2 mps 671 mmHg 29%
17:00 +27°C° 0 mm 2 mps 671 mmHg 34%
18:00 +25°C° 0 mm 1 mps 671 mmHg 38%
19:00 +24°C° 0.1 mm 2 mps 671 mmHg 43%
20:00 +22°C° 0.1 mm 3 mps 672 mmHg 47%
21:00 +21°C° 0.1 mm 4 mps 672 mmHg 52%
22:00 +20°C° 0.4 mm 4 mps 672 mmHg 57%
23:00 +19°C° 0.4 mm 3 mps 672 mmHg 62%

23 September, Wednesday

Time Temperature Precipitation Wind Pressure Humidity
00:00 +19°C° 0.4 mm 3 mps 672 mmHg 68%
01:00 +18°C° 0.2 mm 3 mps 672 mmHg 69%
02:00 +18°C° 0.2 mm 2 mps 671 mmHg 71%
03:00 +17°C° 0.2 mm 2 mps 671 mmHg 72%
04:00 +17°C° 0.3 mm 2 mps 671 mmHg 74%
05:00 +17°C° 0.3 mm 2 mps 672 mmHg 75%
06:00 +16°C° 0.3 mm 1 mps 672 mmHg 77%
07:00 +19°C° 0.1 mm 1 mps 672 mmHg 70%
08:00 +21°C° 0.1 mm 1 mps 673 mmHg 62%
09:00 +23°C° 0.1 mm 1 mps 673 mmHg 55%
10:00 +24°C° 0 mm 1 mps 673 mmHg 51%
11:00 +25°C° 0 mm 1 mps 674 mmHg 47%
12:00 +27°C° 0 mm 2 mps 674 mmHg 43%
13:00 +27°C° 0.1 mm 2 mps 674 mmHg 41%
14:00 +28°C° 0.1 mm 3 mps 673 mmHg 40%
15:00 +28°C° 0.1 mm 3 mps 673 mmHg 38%
16:00 +26°C° 0 mm 4 mps 673 mmHg 43%
17:00 +25°C° 0 mm 4 mps 673 mmHg 49%
18:00 +22°C° 0 mm 4 mps 672 mmHg 54%
19:00 +21°C° 0 mm 4 mps 672 mmHg 57%
20:00 +20°C° 0 mm 4 mps 673 mmHg 59%
21:00 +19°C° 0 mm 3 mps 673 mmHg 62%
22:00 +19°C° 0 mm 3 mps 673 mmHg 63%
23:00 +18°C° 0 mm 2 mps 673 mmHg 65%
Show more